Location: Carnetin
(48.9010°N, 2.7059°E)
Time: 01:11:40
(UTC+00:00)

FENGYUN 1C DEB - Pass Details

Date: 21 August 2022
Orbit: 827 x 911 km, 98.8° (Epoch: 28 September)

Event Time Altitude Azimuth Distance (km) Brightness Sun altitude
Rises 20:02:11 0° 201° (SSW) 3,361 ? -10.9°
Reaches altitude 10° 20:05:00 10° 215° (SW) 2,428 ? -11.3°
Maximum altitude 20:09:14 24° 268° (W) 1,674 ? -11.9°
Drops below altitude 10° 20:13:31 10° 321° (NW) 2,444 ? -12.5°
Sets 20:16:22 0° 335° (NNW) 3,389 ? -12.9°
